ION SCV-006 (52761 NORAD) Tracking and Keplerian Element Data
This shows tracking and keplerian element data for the satellite.
Feedback or suggestion? Click here.
Element | Value |
Catalog | 52761 |
Name | ION SCV-006 |
Epoch Orbit | 712 |
Epoch Day | 192.84640036 |
Epoch Year | 2022 |
RAAN | 307.1957 |
Inclination | 97.5203 |
Eccentricity | 0.001381 |
Argument of Perigee | 75.6664 |
Mean Anonmoly | 284.6099 |
Mean Motion | 15.12825334 |
Decay Rate | 1.933E-05 |
L1 | 1 52761U 22057AF 22192.84640036 .00001933 00000+0 11352-3 0 9994 |
L2 | 2 52761 97.5203 307.1957 0013810 75.6664 284.6099 15.12825334 7120 |
Live tracking and technical data element details for ION SCV-006 (NORAD 52761). ION SCV-006 can be tracked NOW for your location showing map with azimuth and elevation plus other details from your city location.
Track the satellite on the map from your city or location and see movement details for azimuth, elevation, latitude, longitude, range, height, and movement on the map or in text.
IsCatalogInMostPopularTable: catalog: 52761, numindb: 3
Update: records affected: 1
GetName: 52761 ION SCV-006
Hit Count: updated at: Sun, 14 Aug 2022 00:24:08 GMT